Weather History for KSBM - December, 2013

Change the Weather History Date:

Sunday, December 29, 2013

  Actual Average Record
Temperature  
Mean Temperature 19 °F -  
Max Temperature 37 °F 30 °F 62 °F (1984)
Min Temperature 0 °F 17 °F -12 °F (1976)
Degree Days  
Heating Degree Days 46    
Moisture  
Dew Point 14 °F    
Average Humidity 75    
Maximum Humidity 93    
Minimum Humidity 61    
Precipitation  
Precipitation 0.00 in - - ()
Sea Level Pressure  
Sea Level Pressure 29.94 in    
Wind  
Wind Speed 13 mph (NNW)    
Max Wind Speed 21 mph    
Max Gust Speed 29 mph    
Visibility 9 miles    
Events Rain    
Averages and records for this station are not official NWS values.
T = Trace of Precipitation, MM = Missing Value Source: NWS Daily Summary

Daily Weather History Graph

Daily Weather History Graph

Search for Another Location

Airport or City:

Trip Planner

Search our weather history database for the weather conditions in past years. The results will help you decide how hot, cold, wet, or windy it might be!

Date:

Astronomy

Dec. 29, 2013 Rise Set
Actual Time 7:25 AM CST 4:22 PM CST
Civil Twilight 6:52 AM CST 4:55 PM CST
Nautical Twilight 6:15 AM CST 5:31 PM CST
Astronomical Twilight 5:40 AM CST 6:06 PM CST
Moon 4:05 AM CST (12/29) 2:02 PM CST (12/29)
Length of Visible Light 10h 03m
Length of Day
8h 57m
Waning Crescent, 11% of the Moon is Illuminated
Dec 29
Waning Crescent
Jan 1
New
Jan 7
First Quarter
Jan 15
Full
Jan 23
Last Quarter

Hourly Weather History & Observations

Time (CST) Temp. Windchill Dew Point Humidity Pressure Visibility Wind Dir Wind Speed Gust Speed Precip Events Conditions
12:53 AM 37.9 °F 30.0 °F 30.0 °F 73% 29.71 in 10.0 mi WSW 12.7 mph - N/A   Clear
1:53 AM 36.0 °F 27.5 °F 28.9 °F 76% 29.72 in 10.0 mi West 12.7 mph - N/A   Clear
2:53 AM 34.0 °F 28.8 °F 28.0 °F 79% 29.74 in 10.0 mi WSW 5.8 mph - N/A   Clear
3:53 AM 30.0 °F 23.2 °F 26.1 °F 85% 29.75 in 10.0 mi NW 6.9 mph - N/A   Clear
4:33 AM 32.0 °F 22.5 °F 28.9 °F 88% 29.74 in 9.0 mi NNE 12.7 mph - N/A   Mostly Cloudy
4:40 AM 32.0 °F 22.1 °F 28.9 °F 88% 29.75 in 7.0 mi North 13.8 mph - N/A   Mostly Cloudy
4:50 AM 32.0 °F 21.6 °F 30.2 °F 93% 29.75 in 6.0 mi NNE 15.0 mph 23.0 mph N/A   Overcast
4:53 AM 32.0 °F 22.5 °F 30.0 °F 92% 29.78 in 6.0 mi NNE 12.7 mph - N/A   Overcast
5:40 AM 28.9 °F 19.2 °F 26.1 °F 89% 29.78 in 10.0 mi North 11.5 mph - N/A   Overcast
5:53 AM 28.0 °F 16.5 °F 25.0 °F 88% 29.81 in 10.0 mi North 15.0 mph 24.2 mph N/A   Overcast
6:22 AM 26.1 °F 12.7 °F 21.0 °F 81% 29.82 in 10.0 mi North 18.4 mph 26.5 mph N/A   Overcast
6:53 AM 26.1 °F 16.2 °F 19.9 °F 78% 29.88 in 10.0 mi North 10.4 mph 23.0 mph N/A   Overcast
7:53 AM 23.0 °F 8.3 °F 19.0 °F 85% 29.90 in 6.0 mi North 19.6 mph 26.5 mph N/A   Overcast
8:03 AM 23.0 °F 10.6 °F 19.9 °F 88% 29.88 in 3.0 mi North 13.8 mph 24.2 mph 0.00 in Rain Light Freezing Rain
8:20 AM 21.9 °F 6.9 °F 18.0 °F 85% 29.88 in 9.0 mi North 19.6 mph 27.6 mph 0.00 in   Overcast
8:53 AM 21.9 °F 8.2 °F 15.1 °F 75% 29.93 in 10.0 mi North 16.1 mph - 0.00 in   Overcast
9:26 AM 21.0 °F 6.6 °F 12.9 °F 71% 29.91 in 10.0 mi North 17.3 mph - N/A   Overcast
9:42 AM 21.0 °F 5.4 °F 12.9 °F 71% 29.92 in 10.0 mi North 20.7 mph 28.8 mph N/A   Overcast
9:53 AM 21.0 °F 8.1 °F 12.9 °F 71% 29.95 in 10.0 mi North 13.8 mph 21.9 mph N/A   Overcast
10:53 AM 19.0 °F 2.7 °F 10.9 °F 71% 29.96 in 10.0 mi North 20.7 mph 28.8 mph N/A   Overcast
11:53 AM 18.0 °F 4.2 °F 10.0 °F 71% 29.97 in 10.0 mi NNW 13.8 mph - N/A   Overcast
12:53 PM 18.0 °F 3.1 °F 9.0 °F 68% 29.98 in 10.0 mi NNW 16.1 mph - N/A   Overcast
1:53 PM 17.1 °F 3.6 °F 8.1 °F 68% 29.99 in 10.0 mi NNW 12.7 mph 21.9 mph N/A   Overcast
2:53 PM 16.0 °F 1.7 °F 6.1 °F 65% 30.02 in 10.0 mi NW 13.8 mph - N/A   Mostly Cloudy
3:18 PM 15.1 °F 0.5 °F 5.0 °F 64% 30.00 in 10.0 mi NW 13.8 mph - N/A   Scattered Clouds
3:53 PM 14.0 °F -1.4 °F 3.0 °F 62% 30.06 in 10.0 mi NW 15.0 mph - N/A   Clear
4:53 PM 12.0 °F -2.0 °F 1.0 °F 61% 30.07 in 10.0 mi NNW 11.5 mph - N/A   Partly Cloudy
5:53 PM 10.9 °F -2.6 °F -0.0 °F 61% 30.10 in 10.0 mi NNW 10.4 mph - N/A   Overcast
6:53 PM 9.0 °F -4.2 °F -2.0 °F 61% 30.12 in 10.0 mi NW 9.2 mph - N/A   Partly Cloudy
7:53 PM 7.0 °F -4.5 °F -2.9 °F 64% 30.16 in 10.0 mi NW 6.9 mph - N/A   Clear
8:53 PM 6.1 °F -6.8 °F -4.0 °F 63% 30.17 in 10.0 mi NW 8.1 mph - N/A   Clear
9:53 PM 1.9 °F -11.8 °F -5.1 °F 72% 30.19 in 10.0 mi WNW 8.1 mph - N/A   Clear
10:53 PM 1.0 °F -12.9 °F -6.0 °F 72% 30.20 in 10.0 mi WNW 8.1 mph - N/A   Clear
11:53 PM -0.9 °F -12.7 °F -7.1 °F 75% 30.23 in 10.0 mi WNW 5.8 mph - N/A   Clear